{"data":{"norad_id":61586,"epoch":"2026-09-21T16:36:29.662272Z","epoch_age_seconds":89085,"freshness":"FRESH","line1":"1 61586U 24187N   26264.69200998  .00000637  00000+0  10114-4 0  9997","line2":"2 61586  53.1591  50.1066 0000755  95.4721 264.6383 15.69705873111584","mean_motion":15.69705873,"eccentricity":7.55e-5,"inclination_deg":53.1591,"raan_deg":50.1066,"arg_perigee_deg":95.4721,"mean_anomaly_deg":264.6383,"bstar":1.0114e-5,"rev_number":11158,"period_min":91.736931406639,"perigee_km":359.22985073512,"apogee_km":360.24726994473,"semimajor_km":6737.8755603399,"source":"CELESTRAK","updated_at":"2026-09-22T09:00:49.392619Z"}}